Location: Strawberry
(45.6646°N, 111.9596°W)
Time: 22:14:14
(UTC+00:00)

ISS - Pass Details

Date: 25 August 2022
Orbit: 414 x 417 km, 51.6° (Epoch: 24 September)

Event Time Altitude Azimuth Distance (km) Brightness Sun altitude
Exits shadow 11:56:58 10° 229° (SW) 1,507 -1.6 -8.0°
Reaches altitude 10° 11:57:00 10° 229° (SW) 1,495 -1.6 -8.0°
Maximum altitude 12:00:20 64° 148° (SSE) 468 -3.5 -7.4°
Drops below altitude 10° 12:03:40 10° 66° (ENE) 1,500 0.9 -6.9°
Sets 12:05:46 0° 63° (ENE) 2,365 2.7 -6.6°
